Location: Street
(51.1247°N, 2.7429°W)
Time: 18:34:33
(UTC+00:00)

N. Korean satellite - Pass Details

Date: 05 November 2020
Orbit: 453 x 503 km, 97.2° (Epoch: 04 December)

Event Time Altitude Azimuth Distance (km) Brightness Sun altitude
Rises 06:07:36 0° 10° (N) 2,481 10.1 -10.3°
Reaches altitude 10° 06:09:39 10° 7° (N) 1,603 9.1 -9.9°
Maximum altitude 06:13:03 61° 286° (WNW) 524 6.4 -9.4°
Drops below altitude 10° 06:16:26 10° 206° (SSW) 1,600 9.1 -8.9°
Sets 06:18:28 0° 203° (SSW) 2,475 10.1 -8.6°
